Location: F?ge?el
(45.8833°N, 22.5833°E)
Time: 06:13:05
(UTC+00:00)

Cosmos 841 Rocket - Pass Details

Date: 17 November 2025
Orbit: 742 x 768 km, 74.0° (Epoch: 04 December)

Event Time Altitude Azimuth Distance (km) Brightness Sun altitude
Rises 16:27:27 0° 343° (NNW) 3,247 6.8 -15.8°
Reaches altitude 10° 16:30:00 10° 352° (N) 2,318 6.0 -16.2°
Maximum altitude 16:34:54 38° 60° (ENE) 1,155 3.9 -17.1°
Enters shadow 16:37:09 26° 108° (ESE) 1,475 4.5 -17.4°
